Regional Weather Roundup
Issued by NWS

Home | Current Version | Previous Version | Text Only | Print | Product List | Glossary On
Versions: 1 2 3 4 5 6 7 8 9 10 11 12 13 14 15 16 17 18 19 20 21 22 23 24 25 26 27 28 29 30 31 32 33 34 35 36 37 38 39 40 41 42 43 44 45 46 47 48 49 50
000
ASUS45 KREV 010810
RWRNV
NEVADA REGIONAL WEATHER ROUNDUP
NATIONAL WEATHER SERVICE RENO NV
100 AM PDT WED OCT 01 2014

NOTE: "FAIR" INDICATES FEW OR NO CLOUDS BELOW 12,000 FEET WITH NO
SIGNIFICANT WEATHER AND/OR OBSTRUCTIONS TO VISIBILITY.

NVZ001-003-004-010900-
WESTERN NEVADA

CITY           SKY/WX    TMP DP  RH WIND       PRES   REMARKS
RENO           CLEAR     52  34  50 S3        30.09S
CARSON CITY    FAIR      52  28  40 NE12G18   30.10R
MINDEN         FAIR      46  32  57 NE5       30.10
SLIDE MTN        N/A     32  25  74 N15         N/A
PYRAMID LAKE     N/A     55 N/A N/A CALM        N/A
FALLON         CLEAR     50  30  46 N9        30.07R
LOVELOCK       CLEAR     48  32  53 E7        30.08R
HAWTHORNE      CLEAR     55  36  47 NW15      30.06R
$$

NVZ002-CAZ072-073-010900-
NORTHERN AND CENTRAL SIERRA

CITY           SKY/WX    TMP DP  RH WIND       PRES   REMARKS
S. LAKE TAHOE  CLEAR     50  30  46 VRB7      30.09S
TRUCKEE        CLEAR     36  30  80 E3        30.11S
SQUAW VLY 8000 NOT AVBL
SUSANVILLE     CLEAR     41  32  70 CALM      30.11R
BLUE CANYON    CLEAR     52  25  35 NE9G21    30.04S
MAMMOTH LAKES  CLOUDY    50  36  57 W10       30.11S
BRIDGEPORT     FAIR      43  33  68 CALM      30.10F
$$

NVZ030-031-036-010900-
NORTHERN NEVADA

CITY           SKY/WX    TMP DP  RH WIND       PRES   REMARKS
ELKO           CLEAR     34  28  79 S3        30.06F
WINNEMUCCA     CLEAR     38  33  82 W8        30.09S
WENDOVER       PTCLDY    48  32  53 N5        30.01R
$$

NVZ035-037-010900-
CENTRAL NEVADA

CITY           SKY/WX    TMP DP  RH WIND       PRES   REMARKS
ELY            PTCLDY    44  38  79 N12       30.02F
EUREKA           N/A     42  32  67 N6        30.07R
$$

NVZ013-014-010900-
SOUTH CENTRAL NEVADA

CITY           SKY/WX    TMP DP  RH WIND       PRES   REMARKS
TONOPAH        MOCLDY    58  31  35 N13       30.00R
$$

NVZ017-020-022-010900-
SOUTHERN NEVADA

CITY           SKY/WX    TMP DP  RH WIND       PRES   REMARKS
LAS VEGAS      CLEAR     71  37  28 S8        29.73R
N. LAS VEGAS   CLEAR     68  40  35 N5        29.75S
NELLIS AFB     CLEAR     69  41  36 SW2       29.75R
HENDERSON      CLEAR     68  32  26 SW10      29.79S
MERCURY        PTCLDY    61  32  33 CALM      29.83S
$$


USA.gov is the U.S. government's official web portal to all federal, state and local government web resources and services.